sat.trackr.live / text

‹ back to catalog

YAOGAN-20 01B

NORAD 40110 · 2014-047B

PAYLOAD ACTIVE UNKNOWN

§ Identity

Operator
Country
PRC
Launch date
2014-08-09
Launch site
JSC
Launch vehicle
Mass (kg)
RCS (m²)
2.41

External: N2YO · Heavens-Above · Gunter

§ Orbital elements

Epoch: 2026-09-20T04:49:33.012192Z

Period
107.03 min
Inclination
63.3767°
Eccentricity
0.0398405
Mean motion
13.45447071 rev/d
Perigee alt
791.6 km
Apogee alt
1,386.6 km
Semi-major
7,467.2 km
B*
1.0353e-4
RAAN
135.0289°
Arg perigee
15.2307°
Mean anomaly
346.0312°
Rev number
59,506

§ Raw data

YAOGAN-20 01B1 40110U 14047B   26263.20107653  .00000008  00000+0  10353-3 0  99972 40110  63.3767 135.0289 0398405  15.2307 346.0312 13.45447071595065

JSON: /api/v1/satellites/40110 · /tle

For live sub-satellite position, see the globe view (requires WebGL).

§ Visibility from observer

Set your observer location to see the next 7 days of passes ≥ 10°. The values pass through the URL so the page stays shareable.

No JS? Fill the form by hand. The geolocation button needs JavaScript.